Seldovia, AK

5:57 PM AKDT on September 23, 2017 (GMT -0800)
Seldovia

Weather History for PASO - December, 2012

Change the Weather History Date:

Sunday, December 23, 2012

  Actual Average (PAHO) Record (PAHO)
Temperature  
Mean Temperature 26 °F -  
Max Temperature 30 °F 32 °F 48 °F (1970)
Min Temperature 21 °F 20 °F -10 °F (1942)
Degree Days  
Heating Degree Days 40    
Moisture  
Dew Point 24 °F    
Average Humidity 87    
Maximum Humidity 93    
Minimum Humidity 71    
Precipitation  
Precipitation 1.31 in - - ()
Sea Level Pressure  
Sea Level Pressure 29.45 in    
Wind  
Wind Speed 7 mph (NNE)    
Max Wind Speed 17 mph    
Max Gust Speed 22 mph    
Visibility 2 miles    
Events Fog , Snow    
Averages and records for this station are not official NWS values.
T = Trace of Precipitation, MM = Missing Value Source: NWS Daily Summary

Daily Weather History Graph

Daily Weather History Graph

Search for Another Location

Airport or City:

Trip Planner

Search our weather history database for the weather conditions in past years. The results will help you decide how hot, cold, wet, or windy it might be!

Date:

Astronomy

Dec. 23, 2012 Rise Set
Actual Time 10:04 AM AKST 4:07 PM AKST
Civil Twilight 9:08 AM AKST 5:03 PM AKST
Nautical Twilight 8:13 AM AKST 5:59 PM AKST
Astronomical Twilight 7:22 AM AKST 6:50 PM AKST
Moon 1:36 PM AKST (12/23) 5:21 AM AKST (12/23)
Length of Visible Light 7h 55m
Length of Day
6h 03m
Waxing Gibbous, 82% of the Moon is Illuminated
Dec 23
Waxing Gibbous
Dec 28
Full
Jan 4
Last Quarter
Jan 11
New
Jan 18
First Quarter

Hourly Weather History & Observations

Time (AKST) Temp. Windchill Dew Point Humidity Pressure Visibility Wind Dir Wind Speed Gust Speed Precip Events Conditions
12:47 AM 23.0 °F - 19.4 °F 86% 29.57 in 0.5 mi Calm Calm - 0.16 in Fog , Snow Snow
12:53 AM 21.9 °F - 19.9 °F 92% 29.56 in 0.8 mi Calm Calm - 0.17 in Snow Light Snow
1:00 AM 21.2 °F - 19.4 °F 93% 29.56 in 1.0 mi Calm Calm - 0.00 in Snow Light Snow
1:31 AM 21.2 °F 16.4 °F 19.4 °F 93% 29.55 in 1.8 mi South 3.5 mph - 0.01 in Snow Light Snow
1:39 AM 21.2 °F - 19.4 °F 93% 29.55 in 2.0 mi Calm Calm - 0.01 in Snow Light Snow
1:53 AM 21.9 °F 17.2 °F 19.9 °F 92% 29.55 in 4.0 mi South 3.5 mph - 0.01 in Snow Light Snow
2:08 AM 24.8 °F 14.0 °F 21.2 °F 86% 29.54 in 6.0 mi NE 11.5 mph 18.4 mph 0.00 in Snow Light Snow
3:53 AM 26.1 °F 16.2 °F 18.0 °F 71% 29.53 in 10.0 mi NNE 10.4 mph - N/A   Clear
4:53 AM 25.0 °F 13.6 °F 17.1 °F 72% 29.51 in 10.0 mi North 12.7 mph - N/A   Clear
5:53 AM 25.0 °F 14.8 °F 17.1 °F 72% 29.49 in 10.0 mi North 10.4 mph - N/A   Clear
6:53 AM 25.0 °F 19.3 °F 19.0 °F 78% 29.49 in 5.0 mi Variable 4.6 mph - 0.00 in Snow Light Snow
7:22 AM 24.8 °F 17.9 °F 19.4 °F 80% 29.49 in 1.8 mi NNE 5.8 mph - 0.00 in Snow Light Snow
7:27 AM 26.6 °F 16.8 °F 19.4 °F 74% 29.49 in 3.0 mi NNE 10.4 mph - 0.00 in Snow Light Snow
7:51 AM 26.6 °F 16.8 °F 19.4 °F 74% 29.49 in 2.5 mi NNE 10.4 mph - 0.00 in Snow Light Snow
7:53 AM 27.0 °F 17.3 °F 19.9 °F 75% 29.49 in 2.5 mi NNE 10.4 mph - 0.00 in Snow Light Snow
8:03 AM 26.6 °F 18.2 °F 19.4 °F 74% 29.49 in 6.0 mi NNE 8.1 mph - 0.00 in Snow Light Snow
8:11 AM 26.6 °F 16.2 °F 19.4 °F 74% 29.49 in 7.0 mi NNE 11.5 mph - 0.00 in   Overcast
8:18 AM 26.6 °F 15.7 °F 21.2 °F 80% 29.49 in 1.8 mi NNE 12.7 mph - 0.00 in Snow Light Snow
8:35 AM 26.6 °F 15.2 °F 19.4 °F 74% 29.49 in 3.0 mi NNE 13.8 mph - 0.00 in Snow Light Snow
8:53 AM 26.1 °F 14.0 °F 19.9 °F 78% 29.48 in 10.0 mi NNE 15.0 mph - 0.00 in   Mostly Cloudy
9:24 AM 26.6 °F 20.0 °F 21.2 °F 80% 29.49 in 1.5 mi Variable 5.8 mph - 0.01 in Snow Light Snow
9:32 AM 26.6 °F - 21.2 °F 80% 29.49 in 0.8 mi Calm Calm - 0.01 in Snow Light Snow
9:39 AM 26.6 °F 16.2 °F 21.2 °F 80% 29.48 in 2.5 mi NNE 11.5 mph 17.3 mph 0.01 in Snow Light Snow
9:53 AM 24.1 °F - 21.0 °F 88% 29.49 in 3.0 mi Calm Calm - 0.01 in Snow Light Snow
10:11 AM 23.0 °F 18.4 °F 21.2 °F 93% 29.49 in 1.8 mi Variable 3.5 mph - 0.00 in Snow Light Snow
10:21 AM 26.6 °F 21.2 °F 23.0 °F 86% 29.48 in 0.8 mi Variable 4.6 mph - 0.01 in Snow Light Snow
10:31 AM 24.8 °F 20.5 °F 21.2 °F 86% 29.49 in 0.8 mi SSE 3.5 mph - 0.02 in Snow Light Snow
10:35 AM 24.8 °F - 21.2 °F 86% 29.49 in 1.2 mi Calm Calm - 0.02 in Snow Light Snow
10:39 AM 24.8 °F 17.9 °F 21.2 °F 86% 29.48 in 3.0 mi Variable 5.8 mph - 0.02 in Snow Light Snow
10:53 AM 27.0 °F 16.7 °F 23.0 °F 85% 29.49 in 4.0 mi NE 11.5 mph - 0.02 in Snow Light Snow
10:56 AM 26.6 °F 15.2 °F 23.0 °F 86% 29.48 in 1.8 mi NNE 13.8 mph - 0.00 in Snow Light Snow
10:59 AM 26.6 °F 14.3 °F 24.8 °F 93% 29.48 in 0.2 mi NNE 16.1 mph 20.7 mph 0.00 in Fog , Snow Snow
11:14 AM 26.6 °F 15.7 °F 24.8 °F 93% 29.48 in 0.2 mi NNE 12.7 mph - 0.02 in Fog , Snow Snow
11:22 AM 28.4 °F 18.0 °F 24.8 °F 86% 29.48 in 0.5 mi NNE 12.7 mph 19.6 mph 0.03 in Fog , Snow Light Snow
11:30 AM 28.4 °F 18.5 °F 24.8 °F 86% 29.47 in 0.2 mi North 11.5 mph - 0.03 in Fog , Snow Snow
11:53 AM 28.0 °F 15.7 °F 25.0 °F 88% 29.48 in 1.2 mi NNE 17.3 mph 21.9 mph 0.05 in Snow Light Snow
11:58 AM 28.4 °F 16.6 °F 24.8 °F 86% 29.48 in 2.0 mi NE 16.1 mph 21.9 mph 0.00 in Snow Light Snow
12:08 PM 28.4 °F 18.0 °F 24.8 °F 86% 29.48 in 0.8 mi North 12.7 mph 20.7 mph 0.00 in Snow Light Snow
12:18 PM 28.4 °F 18.5 °F 24.8 °F 86% 29.47 in 0.2 mi NNE 11.5 mph 19.6 mph 0.01 in Fog , Snow Heavy Snow
12:28 PM 28.4 °F 21.2 °F 24.8 °F 86% 29.47 in 0.2 mi North 6.9 mph 18.4 mph 0.03 in Fog , Snow Heavy Snow
12:40 PM 28.4 °F 17.5 °F 24.8 °F 86% 29.46 in 0.5 mi NNE 13.8 mph 18.4 mph 0.04 in Fog , Snow Snow
12:53 PM 28.0 °F 18.6 °F 25.0 °F 88% 29.47 in 0.5 mi NNE 10.4 mph - 0.04 in Fog , Snow Snow
1:01 PM 28.4 °F 18.0 °F 24.8 °F 86% 29.46 in 0.2 mi NNE 12.7 mph - 0.01 in Fog , Snow Heavy Snow
1:09 PM 28.4 °F 17.5 °F 24.8 °F 86% 29.46 in 0.2 mi NNE 13.8 mph - 0.01 in Fog , Snow Snow
1:25 PM 28.4 °F 19.1 °F 24.8 °F 86% 29.46 in 0.5 mi NNE 10.4 mph - 0.02 in Fog , Snow Light Snow
1:34 PM 28.4 °F 17.0 °F 24.8 °F 86% 29.46 in 1.2 mi NNE 15.0 mph 20.7 mph 0.02 in Snow Light Snow
1:45 PM 28.4 °F 17.5 °F 24.8 °F 86% 29.46 in 0.5 mi NNE 13.8 mph 20.7 mph 0.02 in Fog , Snow Light Snow
1:53 PM 28.0 °F 16.5 °F 25.0 °F 88% 29.46 in 0.2 mi NNE 15.0 mph 20.7 mph 0.03 in Fog , Snow Heavy Snow
2:53 PM 28.0 °F 17.5 °F 25.0 °F 88% 29.44 in 0.2 mi NNE 12.7 mph - 0.08 in Fog , Snow Heavy Snow
3:53 PM 28.0 °F 19.3 °F 25.0 °F 88% 29.43 in 0.2 mi NNE 9.2 mph - 0.09 in Fog , Snow Heavy Snow
4:09 PM 28.4 °F 19.7 °F 24.8 °F 86% 29.42 in 0.5 mi NNE 9.2 mph - 0.02 in Fog , Snow Snow
4:28 PM 28.4 °F 20.4 °F 26.6 °F 93% 29.42 in 0.2 mi North 8.1 mph - 0.06 in Fog , Snow Heavy Snow
4:41 PM 28.4 °F 19.1 °F 24.8 °F 86% 29.42 in 0.5 mi NNE 10.4 mph - 0.07 in Fog , Snow Snow
4:53 PM 28.0 °F 19.3 °F 25.0 °F 88% 29.41 in 1.0 mi NNE 9.2 mph - 0.08 in Snow Light Snow
5:00 PM 28.4 °F 19.7 °F 24.8 °F 86% 29.41 in 0.8 mi NNE 9.2 mph - 0.01 in Snow Light Snow
5:17 PM 28.4 °F 20.4 °F 24.8 °F 86% 29.41 in 0.8 mi NNE 8.1 mph 16.1 mph 0.02 in Snow Light Snow
5:24 PM 28.4 °F 22.2 °F 26.6 °F 93% 29.41 in 0.5 mi Variable 5.8 mph - 0.03 in Fog , Snow Snow
5:36 PM 28.4 °F 19.7 °F 26.6 °F 93% 29.41 in 0.2 mi NNE 9.2 mph - 0.06 in Fog , Snow Heavy Snow
5:53 PM 28.0 °F 24.2 °F 26.1 °F 92% 29.41 in 0.2 mi NNE 3.5 mph - 0.12 in Fog , Snow Heavy Snow
6:10 PM 28.4 °F - 26.6 °F 93% 29.41 in 0.5 mi Calm Calm - 0.04 in Fog , Snow Snow
6:51 PM 28.4 °F 21.2 °F 26.6 °F 93% 29.39 in 1.0 mi NNE 6.9 mph - 0.07 in Snow Light Snow
6:52 PM 28.9 °F 21.9 °F 26.1 °F 89% 29.39 in 1.0 mi NNE 6.9 mph - 0.07 in Snow Light Snow
7:15 PM 28.4 °F - 26.6 °F 93% 29.39 in 0.5 mi Calm Calm - 0.02 in Fog , Snow Snow
7:25 PM 28.4 °F 19.1 °F 26.6 °F 93% 29.38 in 0.5 mi NNE 10.4 mph 16.1 mph 0.03 in Fog , Snow Snow
7:46 PM 28.4 °F 20.4 °F 26.6 °F 93% 29.38 in 0.2 mi North 8.1 mph - 0.07 in Fog , Snow Heavy Snow
7:53 PM 28.9 °F 21.9 °F 27.0 °F 92% 29.38 in 0.2 mi North 6.9 mph - 0.09 in Fog , Snow Heavy Snow
8:53 PM 30.0 °F 22.4 °F 28.0 °F 92% 29.38 in 0.2 mi North 8.1 mph - 0.24 in Fog , Snow Heavy Snow
9:27 PM 30.2 °F 21.3 °F 28.4 °F 93% 29.37 in 0.5 mi North 10.4 mph - 0.10 in Fog , Snow Snow
9:43 PM 30.2 °F 20.2 °F 28.4 °F 93% 29.37 in 1.0 mi North 12.7 mph - 0.11 in Snow Light Snow
9:53 PM 30.0 °F 19.5 °F 28.0 °F 92% 29.37 in 1.2 mi NNE 13.8 mph - 0.11 in Snow Light Snow
9:57 PM 30.2 °F 21.3 °F 28.4 °F 93% 29.37 in 0.8 mi NNE 10.4 mph 19.6 mph 0.01 in Snow Light Snow
10:25 PM 30.2 °F 24.3 °F 28.4 °F 93% 29.37 in 0.8 mi North 5.8 mph - 0.03 in Snow Light Snow
10:48 PM 30.2 °F 22.6 °F 28.4 °F 93% 29.36 in 1.0 mi North 8.1 mph - 0.04 in Snow Light Snow
10:53 PM 30.9 °F 22.8 °F 28.0 °F 89% 29.36 in 1.2 mi North 9.2 mph - 0.04 in Snow Light Snow
11:01 PM 30.2 °F 21.9 °F 28.4 °F 93% 29.36 in 1.8 mi North 9.2 mph - 0.01 in Snow Light Snow
11:16 PM 30.2 °F 20.8 °F 28.4 °F 93% 29.36 in 0.8 mi NNE 11.5 mph - 0.01 in Snow Light Snow
11:31 PM 30.2 °F 21.9 °F 28.4 °F 93% 29.35 in 0.5 mi North 9.2 mph - 0.03 in Fog , Snow Snow
11:53 PM 30.0 °F 24.1 °F 28.0 °F 92% 29.34 in 0.5 mi North 5.8 mph - 0.06 in Fog , Snow Snow